Find Starlink 4331

NORAD ID: 53046 Int'l Des: 2022-077 Owner: SPXS Country: US Constellation: starlink operational
LEOCIRCULARRETROGRADESSO

現在のビュー

3D地球を読み込み中...

About Starlink 4331

Starlink 4331 (NORAD 53046) is a starlink constellation satellite (v1.5) launched Jul 11, 2022 by SPXS of US. It operates in LEO, CIRCULAR, RETROGRADE, SSO orbit with a mass of 297.00 kg.

Starlink 4331について

説明を読み込み中...

次回通過

Passes for default location (London). Set your location on the main map for personalized predictions.

高度履歴

Loading altitude history...

軌道要素

1 53046U 22077D 26169.77337302 -.00000570 00000-0 -35544-4 0 9991
2 53046 97.3490 349.8967 0001611 86.0671 274.0741 15.05662562216209
Epoch: Jun 18, 2026 • Age: 10 hours

現在のステータス

高度 558.4 km
速度 7.59 km/s
衛星直下点 58.26°N, 155.16°W
打ち上げ日 Jul 11, 2022
運用期間 3.9 years
タイプ internet

技術仕様

分類 Payload
質量 297.00 kg
乾燥質量 275.00 kg
総質量 297.00 kg
長さ 0.20 m
直径 2.80 m
スパン 9.00 m
形状 Box + pan
製造者 SPXS
バスタイプ Starlink
フェーズステータス In Orbit
所有者/国 SPXS/US

Most Searched